| time (UTC) | temp F | wind direction | speed MPH | gust MPH | rain 1hr in | rain 24hr in | rain mn in | humidity % | barometer mb |
| 20260905215121 | 56 | 228 | 3.0 | 7.0 | 0.00 | 0.07 | 0.07 | 82 | 1010.0 |
| 20260905212121 | 56 | 327 | 3.0 | 9.0 | 0.00 | 0.07 | 0.07 | 82 | 1010.5 |
| 20260905205122 | 56 | 187 | 4.0 | 8.0 | 0.00 | 0.09 | 0.07 | 81 | 1010.7 |
| 20260905202121 | 57 | 212 | 3.0 | 9.0 | 0.00 | 0.10 | 0.07 | 80 | 1010.9 |
| 20260905195122 | 57 | 314 | 3.0 | 8.0 | 0.00 | 0.10 | 0.07 | 83 | 1011.0 |
| 20260905192122 | 57 | 270 | 2.0 | 8.0 | 0.01 | 0.10 | 0.07 | 85 | 1011.1 |
| 20260905185121 | 56 | 270 | 2.0 | 6.0 | 0.02 | 0.10 | 0.07 | 91 | 1011.3 |
| 20260905182122 | 56 | 228 | 3.0 | 5.0 | 0.02 | 0.09 | 0.05 | 87 | 1011.1 |
| 20260905175121 | 56 | 268 | 1.0 | 3.0 | 0.01 | 0.08 | 0.04 | 84 | 1011.0 |
| 20260905172121 | 56 | 227 | 0.0 | 2.0 | 0.00 | 0.07 | 0.03 | 81 | 1011.9 |
| 20260905165122 | 58 | 245 | 0.0 | 3.0 | 0.00 | 0.07 | 0.03 | 72 | 1012.2 |
| 20260905162122 | 61 | 270 | 5.0 | 12.0 | 0.00 | 0.07 | 0.03 | 61 | 1012.5 |
| 20260905155121 | 69 | 202 | 6.0 | 12.0 | 0.00 | 0.07 | 0.03 | 43 | 1013.1 |
| 20260905152122 | 69 | 268 | 3.0 | 10.0 | 0.00 | 0.07 | 0.03 | 42 | 1013.9 |
| 20260905145122 | 69 | 202 | 6.0 | 13.0 | 0.00 | 0.07 | 0.03 | 40 | 1014.0 |
| 20260905142121 | 71 | 232 | 5.0 | 18.0 | 0.00 | 0.07 | 0.03 | 35 | 1013.8 |
| 20260905135122 | 72 | 240 | 4.0 | 21.0 | 0.00 | 0.07 | 0.03 | 34 | 1014.1 |
| 20260905132123 | 70 | 268 | 6.0 | 25.0 | 0.00 | 0.07 | 0.03 | 39 | 1013.9 |
| 20260905125122 | 71 | 225 | 6.0 | 19.0 | 0.00 | 0.07 | 0.03 | 42 | 1014.3 |
| 20260905122121 | 71 | 263 | 3.0 | 22.0 | 0.00 | 0.07 | 0.03 | 39 | 1014.1 |
| 20260905115123 | 69 | 186 | 5.0 | 17.0 | 0.00 | 0.07 | 0.03 | 46 | 1013.6 |
| 20260905112122 | 71 | 233 | 4.0 | 15.0 | 0.00 | 0.07 | 0.03 | 48 | 1013.7 |
| 20260905105121 | 69 | 247 | 4.0 | 18.0 | 0.00 | 0.07 | 0.03 | 47 | 1014.0 |
| 20260905102121 | 69 | 196 | 6.0 | 11.0 | 0.00 | 0.07 | 0.03 | 51 | 1014.2 |
| 20260905095122 | 71 | 276 | 6.0 | 16.0 | 0.00 | 0.07 | 0.03 | 51 | 1014.2 |
| 20260905092122 | 69 | 193 | 4.0 | 12.0 | 0.00 | 0.07 | 0.03 | 56 | 1014.3 |
| 20260905085122 | 66 | 226 | 3.0 | 18.0 | 0.00 | 0.07 | 0.03 | 61 | 1014.4 |
| 20260905082121 | 67 | 223 | 5.0 | 15.0 | 0.00 | 0.07 | 0.03 | 62 | 1014.6 |
| 20260905075121 | 65 | 271 | 4.0 | 15.0 | 0.00 | 0.07 | 0.03 | 66 | 1014.4 |
| 20260905072121 | 62 | 203 | 3.0 | 11.0 | 0.00 | 0.07 | 0.03 | 72 | 1014.6 |
| 20260905065122 | 62 | 181 | 6.0 | 9.0 | 0.00 | 0.07 | 0.03 | 77 | 1015.1 |
| 20260905062122 | 62 | 239 | 2.0 | 12.0 | 0.00 | 0.07 | 0.03 | 79 | 1015.4 |
| 20260905055121 | 61 | 181 | 3.0 | 9.0 | 0.00 | 0.07 | 0.03 | 80 | 1015.5 |
| 20260905052123 | 61 | 274 | 3.0 | 10.0 | 0.00 | 0.07 | 0.03 | 82 | 1015.8 |
| 20260905045122 | 60 | 317 | 2.0 | 8.0 | 0.00 | 0.07 | 0.03 | 85 | 1016.4 |
| 20260905042121 | 60 | 253 | 3.0 | 7.0 | 0.00 | 0.07 | 0.03 | 87 | 1016.9 |
| 20260905035122 | 60 | 115 | 3.0 | 9.0 | 0.00 | 0.07 | 0.03 | 89 | 1017.7 |
| 20260905032122 | 60 | 94 | 5.0 | 9.0 | 0.00 | 0.07 | 0.03 | 91 | 1017.7 |
| 20260905025123 | 60 | 135 | 2.0 | 8.0 | 0.01 | 0.07 | 0.03 | 93 | 1017.8 |
| 20260905022122 | 60 | 135 | 3.0 | 9.0 | 0.01 | 0.07 | 0.03 | 92 | 1018.1 |
| 20260905015122 | 60 | 132 | 3.0 | 8.0 | 0.00 | 0.05 | 0.02 | 90 | 1018.5 |
| 20260905012122 | 61 | 181 | 9.0 | 18.0 | 0.00 | 0.05 | 0.02 | 85 | 1018.4 |
| 20260905005122 | 61 | 185 | 4.0 | 11.0 | 0.02 | 0.05 | 0.02 | 85 | 1018.7 |
| 20260905002122 | 62 | 184 | 6.0 | 12.0 | 0.02 | 0.05 | 0.02 | 88 | 1019.2 |
| 20260904235121 | 64 | 223 | 2.0 | 6.0 | 0.00 | 0.03 | 0.00 | 90 | 1019.7 |
| 20260904232122 | 63 | 178 | 3.0 | 9.0 | 0.00 | 0.03 | 0.00 | 90 | 1020.6 |
| 20260904225123 | 63 | 181 | 2.0 | 5.0 | 0.00 | 0.03 | 0.00 | 91 | 1020.6 |
| 20260904222122 | 64 | 181 | 1.0 | 7.0 | 0.00 | 0.03 | 0.00 | 92 | 1020.6 |